[[{"header":{"parameterUnit":"m.s-1","parameterCategory":1,"la1":30.2991,"la2":30.254,"lo1":-89.0895,"lo2":-89.0444,"dx":0.0017,"dy":0.0017,"nx":28,"ny":28,"refTime":"2023-01-09T03:00:00:Z","depth":0,"parameterNumber":2,"parameterNumberName":"U-component_of_WINDS"},"data":[0,0,0,0,0,0,0,0,0,0,0,0,0,0,0,0,0,0,0,0,0,0,0,0,0,0,0,0,0,0,0,0,0,0,0,0,0,0,0,0,0,0,0,0,0,0,0,0,0,0,0,0,0,0,0,0,0,0,1.4033,1.4034,0,1.4098,1.4099,1.41,1.409,1.4089,1.4088,1.4087,1.4157,1.416,1.4163,0,0,0,0,0,0,0,0,0,0,0,0,0,1.3903,1.3905,1.4033,1.4034,1.4034,1.4098,1.4099,1.41,1.409,1.4089,1.4088,1.4086,1.4156,1.4159,1.4163,0,0,0,0,0,0,0,0,0,0,0,0,0,1.3963,1.3906,1.4033,1.4037,1.4038,1.4098,1.4099,1.41,1.4091,1.4089,1.4087,1.4086,1.4155,1.4159,1.4163,1.4224,0,0,1.4177,1.4179,0,0,0,0,0,0,0,0,1.396,1.3968,1.4036,1.4037,1.4038,1.4084,1.4079,1.4142,1.4091,1.4071,1.4087,1.4085,1.4134,1.414,1.4156,1.4227,1.423,1.4177,1.418,1.4182,1.4183,0,0,0,0,0,0,0,1.3956,1.3965,1.4059,1.4037,1.4038,1.4037,1.4044,1.4091,1.4111,1.4072,1.4072,1.408,1.4135,1.4152,1.4158,1.4231,1.4177,1.4181,1.4184,1.4185,1.4355,1.4357,0,0,0,0,0,0,1.395,1.3962,1.4057,1.4061,1.3994,1.4041,1.4048,1.4071,1.4111,1.4115,1.4081,1.4079,1.4146,1.4153,1.416,1.4233,1.4182,1.4186,1.4188,1.4353,1.4356,1.4358,0,0,0,0,0,0,1.3947,1.3958,1.4054,1.4011,1.4023,1.4045,1.4071,1.4073,1.4091,1.4117,1.4121,1.4095,1.4144,1.4154,1.4208,1.4236,1.4188,1.4192,1.4351,1.4354,1.4357,1.438,0,0,0,0,0,0,1.3943,1.3957,1.3979,1.4012,1.4025,1.4099,1.4072,1.4076,1.4098,1.4096,1.4131,1.4135,1.4144,1.4201,1.4212,1.4241,1.4195,1.4349,1.4353,1.4356,1.4377,1.4383,1.4389,0,0,0,0,0,1.3939,1.3984,1.3981,1.3992,1.4053,1.4101,1.4109,1.4117,1.41,1.4123,1.414,1.4134,1.4231,1.4207,1.4219,1.4249,1.4347,1.4351,1.4356,1.4374,1.4382,1.4389,0,0,0,0,0,0,1.3955,1.3988,1.3985,1.4042,1.4069,1.4099,1.4128,1.4125,1.4158,1.4155,1.4165,1.4173,1.4227,1.4244,1.4217,1.431,1.4287,1.4294,1.4297,1.4305,1.431,1.4305,1.4199,0,0,0,0,0,1.3966,1.4,1.4028,1.4076,1.4089,1.4107,1.4128,1.4131,1.416,1.4172,1.4193,1.4222,1.4259,1.4283,1.4318,1.438,1.4388,1.4407,1.4413,1.4418,1.4423,1.4457,1.4466,1.4372,1.4372,1.4372,0,0,1.3987,1.401,1.4031,1.4079,1.4101,1.4137,1.4116,1.4156,1.4183,1.4178,1.4229,1.4246,1.4279,1.4337,1.4364,1.4353,1.4451,1.4423,1.4427,1.443,1.4462,1.4471,1.4479,1.4375,1.4374,1.4374,0,0,1.4045,1.4066,1.4107,1.4129,1.4161,1.4173,1.4183,1.4214,1.4225,1.4276,1.4273,1.4307,1.4371,1.4394,1.4415,1.4483,1.4479,1.4495,1.4525,1.4558,1.4566,1.4572,1.4596,1.4605,1.45,1.45,1.45,0,1.4068,1.4122,1.4129,1.4169,1.4191,1.4187,1.423,1.4252,1.4294,1.431,1.4297,1.4377,1.4399,1.4462,1.4479,1.4496,1.4508,1.449,1.4564,1.4571,1.4577,1.46,1.4609,1.4502,1.4502,1.4502,1.4501,0,1.4149,1.4186,1.4216,1.4256,1.4282,1.4323,1.4338,1.4363,1.4365,1.4379,1.4432,1.4459,1.4499,1.4515,1.4518,1.4579,1.4572,1.4561,1.4538,1.4587,1.4609,1.4618,1.4504,1.4504,1.4503,1.4503,0,0,1.4217,1.4261,1.4272,1.429,1.4326,1.4356,1.4398,1.4437,1.4458,1.4489,1.4524,1.4579,1.457,1.4593,1.4599,1.4628,1.468,1.4614,1.4615,1.4625,1.4749,1.4756,1.4766,1.4678,1.468,1.4681,1.4746,0,1.4278,1.435,1.4358,1.4423,1.4459,1.4456,1.4493,1.452,1.4534,1.4567,1.4583,1.4621,1.4606,1.462,1.4649,1.4667,1.4705,1.4663,1.4712,1.4714,1.4702,1.4777,1.4784,1.4844,1.4755,1.4756,1.4757,0,1.4358,1.4389,1.4457,1.4488,1.4503,1.4536,1.4572,1.4604,1.4635,1.4643,1.4669,1.4672,1.4717,1.4692,1.4755,1.4726,1.4747,1.4759,1.4762,1.4766,1.4738,1.4783,1.4864,1.4872,1.4771,1.477,1.4769,0,1.44,1.4459,1.4507,1.4523,1.4561,1.4584,1.4601,1.463,1.4654,1.4687,1.4702,1.474,1.4761,1.4791,1.4805,1.4786,1.4866,1.4843,1.4875,1.4874,1.489,1.4889,1.4975,1.4906,1.4906,1.4905,1.4905,0,1.4466,1.4507,1.4527,1.4556,1.4603,1.4614,1.4661,1.4677,1.4703,1.4737,1.4739,1.4771,1.4787,1.4822,1.4833,1.4883,1.4892,1.4901,1.4903,1.49,1.4899,1.4913,1.4909,1.4908,1.4907,1.4907,1.4906,0,1.452,1.4535,1.4587,1.4619,1.4628,1.4661,1.4689,1.4718,1.4733,1.4775,1.4786,1.4809,1.485,1.4867,1.4918,1.4925,1.4982,1.4982,1.4971,1.4972,1.5002,1.4999,1.5099,1.5113,1.5036,1.5036,1.5037,0,1.456,1.4592,1.4627,1.4649,1.4667,1.4703,1.4726,1.4738,1.4763,1.4801,1.4826,1.4867,1.49,1.4967,1.4989,1.5028,1.5028,1.5061,1.5034,1.503,1.5028,1.5025,1.5028,1.5065,1.5066,1.5066,1.5067,0,1.463,1.4636,1.4669,1.4705,1.4733,1.4762,1.4791,1.4809,1.4826,1.4854,1.4896,1.4922,1.4973,1.5014,1.5055,1.5074,1.5074,1.5076,1.5085,1.5081,1.5073,1.5077,1.4984,1.5073,1.5072,1.5072,1.5071,1.5071,1.4678,1.4706,1.4735,1.4772,1.4795,1.4822,1.4851,1.4869,1.4903,1.4945,1.4951,1.4996,1.5028,1.5082,1.5103,1.5139,1.5131,1.5144,1.5148,1.5151,1.5152,1.5069,1.5147,1.5147,1.5147,1.5146,1.5146,0,1.4747,1.4766,1.48,1.484,1.4869,1.4866,1.4898,1.4923,1.4962,1.4991,1.5023,1.5071,1.5111,1.5137,1.5178,1.5202,1.5203,1.5212,1.521,1.5214,1.5158,1.5145,1.521,1.521,1.521,1.521,1.521,1.521,1.4787,1.4834,1.4844,1.4903,1.4922,1.4964,1.4983,1.5008,1.5031,1.5085,1.5117,1.5133,1.5162,1.5204,1.5242,1.5248,1.5263,1.5273,1.5279,1.5225,1.5218,1.5212,1.52,1.5276,1.5276,1.5332,1.5333,1.5333]},{"header":{"parameterUnit":"m.s-1","parameterCategory":1,"la1":30.2991,"la2":30.254,"lo1":-89.0895,"lo2":-89.0444,"dx":0.0017,"dy":0.0017,"nx":28,"ny":28,"refTime":"2023-01-09T03:00:00:Z","depth":0,"parameterNumber":3,"parameterNumberName":"V-component_of_WINDS"},"data":[0,0,0,0,0,0,0,0,0,0,0,0,0,0,0,0,0,0,0,0,0,0,0,0,0,0,0,0,0,0,0,0,0,0,0,0,0,0,0,0,0,0,0,0,0,0,0,0,0,0,0,0,0,0,0,0,0,0,-1.8145,-1.8145,0,-1.8103,-1.8102,-1.8102,-1.8151,-1.8153,-1.8155,-1.8157,-1.8109,-1.8106,-1.8103,0,0,0,0,0,0,0,0,0,0,0,0,0,-1.8268,-1.8265,-1.8145,-1.8145,-1.8144,-1.8103,-1.8102,-1.8101,-1.8151,-1.8153,-1.8155,-1.8158,-1.811,-1.8106,-1.8103,0,0,0,0,0,0,0,0,0,0,0,0,0,-1.8219,-1.8265,-1.8145,-1.8164,-1.8165,-1.8103,-1.8102,-1.8101,-1.815,-1.8153,-1.8156,-1.8159,-1.8111,-1.8107,-1.8102,-1.8018,0,0,-1.8089,-1.8087,0,0,0,0,0,0,0,0,-1.8222,-1.8214,-1.8162,-1.8163,-1.8164,-1.8135,-1.8128,-1.8073,-1.815,-1.8156,-1.8157,-1.816,-1.8115,-1.8111,-1.8096,-1.8016,-1.8014,-1.8088,-1.8085,-1.8084,-1.8082,0,0,0,0,0,0,0,-1.8225,-1.8216,-1.8128,-1.8161,-1.8162,-1.8174,-1.817,-1.8118,-1.812,-1.8156,-1.8159,-1.8154,-1.8116,-1.81,-1.8095,-1.8013,-1.8088,-1.8084,-1.8082,-1.808,-1.7866,-1.7863,0,0,0,0,0,0,-1.8227,-1.8219,-1.813,-1.8127,-1.82,-1.8169,-1.8165,-1.8141,-1.8121,-1.8121,-1.8151,-1.8156,-1.8107,-1.8101,-1.8094,-1.7997,-1.8084,-1.8079,-1.8077,-1.7868,-1.7865,-1.7862,0,0,0,0,0,0,-1.8229,-1.8218,-1.8131,-1.8174,-1.8164,-1.8164,-1.8137,-1.8139,-1.8123,-1.8118,-1.8118,-1.8135,-1.8109,-1.81,-1.8038,-1.7995,-1.8077,-1.8073,-1.7872,-1.7867,-1.7863,-1.7799,0,0,0,0,0,0,-1.8232,-1.8219,-1.8187,-1.8173,-1.8161,-1.8076,-1.8135,-1.8136,-1.8116,-1.8122,-1.8102,-1.8102,-1.811,-1.8044,-1.8033,-1.7991,-1.807,-1.7876,-1.787,-1.7865,-1.7805,-1.7793,-1.7783,0,0,0,0,0,-1.8236,-1.8169,-1.8185,-1.8174,-1.8122,-1.8074,-1.8067,-1.8079,-1.8112,-1.8081,-1.8077,-1.8102,-1.8002,-1.8037,-1.8026,-1.7981,-1.7879,-1.7872,-1.7865,-1.781,-1.7796,-1.7783,0,0,0,0,0,0,-1.8176,-1.8167,-1.8185,-1.8111,-1.8093,-1.8082,-1.8042,-1.8063,-1.8034,-1.804,-1.8056,-1.8051,-1.7985,-1.7977,-1.8016,-1.79,-1.7946,-1.7936,-1.7908,-1.7894,-1.7883,-1.7887,-1.8066,0,0,0,0,0,-1.8154,-1.8117,-1.8111,-1.8046,-1.8037,-1.8041,-1.802,-1.8032,-1.8013,-1.8005,-1.7997,-1.7977,-1.7941,-1.7917,-1.7884,-1.7804,-1.7802,-1.7768,-1.7757,-1.7748,-1.7739,-1.7699,-1.7685,-1.784,-1.784,-1.784,0,0,-1.8108,-1.8099,-1.8074,-1.8034,-1.8021,-1.7982,-1.8034,-1.7989,-1.796,-1.7998,-1.7939,-1.7933,-1.7911,-1.7841,-1.7809,-1.7832,-1.7696,-1.7739,-1.7732,-1.7729,-1.7691,-1.7676,-1.7663,-1.7835,-1.7836,-1.7837,0,0,-1.8005,-1.7994,-1.7941,-1.7928,-1.7909,-1.7912,-1.7899,-1.7886,-1.7884,-1.7826,-1.7854,-1.7819,-1.7757,-1.7741,-1.7725,-1.762,-1.7642,-1.7608,-1.755,-1.7511,-1.7499,-1.7488,-1.7452,-1.7438,-1.76,-1.76,-1.76,0,-1.7951,-1.7893,-1.791,-1.7864,-1.7846,-1.7881,-1.7827,-1.7813,-1.7783,-1.777,-1.7796,-1.7721,-1.7708,-1.7636,-1.7611,-1.7596,-1.7583,-1.761,-1.7499,-1.7489,-1.7479,-1.7445,-1.7431,-1.7596,-1.7596,-1.7597,-1.7597,0,-1.7828,-1.7788,-1.7746,-1.772,-1.7697,-1.7647,-1.7656,-1.7631,-1.7646,-1.7647,-1.7588,-1.7575,-1.7541,-1.7525,-1.7537,-1.7455,-1.747,-1.7497,-1.7543,-1.746,-1.7428,-1.7415,-1.759,-1.7592,-1.7593,-1.7594,0,0,-1.7684,-1.7669,-1.7654,-1.7643,-1.7626,-1.7595,-1.7547,-1.7516,-1.7495,-1.7474,-1.7435,-1.7383,-1.7409,-1.7391,-1.7402,-1.7367,-1.7287,-1.7399,-1.7399,-1.738,-1.7198,-1.7178,-1.7163,-1.7302,-1.73,-1.7298,-1.72,0,-1.7582,-1.7501,-1.7516,-1.7437,-1.7401,-1.7435,-1.7394,-1.7379,-1.7379,-1.7348,-1.7348,-1.7312,-1.7348,-1.7338,-1.7306,-1.7304,-1.7251,-1.7311,-1.7266,-1.7265,-1.7271,-1.7146,-1.7124,-1.7032,-1.7188,-1.7186,-1.7184,0,-1.7451,-1.7428,-1.7347,-1.7338,-1.7323,-1.7286,-1.726,-1.723,-1.7214,-1.7217,-1.7199,-1.7217,-1.717,-1.7217,-1.7154,-1.7194,-1.7177,-1.7174,-1.7171,-1.7167,-1.722,-1.714,-1.7003,-1.699,-1.7164,-1.7166,-1.7167,0,-1.7357,-1.7305,-1.725,-1.7239,-1.7227,-1.7201,-1.7194,-1.7182,-1.7163,-1.714,-1.7128,-1.7098,-1.7083,-1.706,-1.707,-1.7103,-1.7005,-1.7052,-1.7007,-1.7006,-1.6984,-1.6985,-1.6844,-1.6972,-1.6972,-1.6972,-1.6972,0,-1.7242,-1.719,-1.7208,-1.7174,-1.7118,-1.7136,-1.708,-1.7078,-1.7067,-1.7033,-1.706,-1.7027,-1.7043,-1.7012,-1.7019,-1.6967,-1.6959,-1.696,-1.6963,-1.6958,-1.6958,-1.6947,-1.6954,-1.6969,-1.6969,-1.697,-1.6971,0,-1.7126,-1.7135,-1.7078,-1.7072,-1.707,-1.7029,-1.7024,-1.6993,-1.6997,-1.6954,-1.6945,-1.695,-1.6915,-1.6924,-1.6885,-1.689,-1.6824,-1.6834,-1.683,-1.6833,-1.6787,-1.6791,-1.6633,-1.6614,-1.6754,-1.6752,-1.6751,0,-1.7052,-1.7014,-1.7006,-1.6986,-1.6978,-1.6946,-1.6927,-1.6944,-1.6924,-1.6905,-1.6876,-1.6844,-1.682,-1.6763,-1.6762,-1.6734,-1.6744,-1.6691,-1.6739,-1.6737,-1.6745,-1.6747,-1.6744,-1.6681,-1.6679,-1.6678,-1.6677,0,-1.6921,-1.6928,-1.6901,-1.6877,-1.6855,-1.6836,-1.6819,-1.6801,-1.6817,-1.6793,-1.6759,-1.674,-1.6702,-1.667,-1.6645,-1.6638,-1.666,-1.6662,-1.665,-1.6645,-1.6644,-1.6645,-1.6804,-1.6665,-1.6666,-1.6667,-1.6668,-1.6668,-1.6825,-1.6793,-1.6783,-1.6753,-1.6743,-1.6728,-1.6699,-1.67,-1.6673,-1.6644,-1.6656,-1.6617,-1.6604,-1.6572,-1.6563,-1.6533,-1.6553,-1.6535,-1.6531,-1.6526,-1.6521,-1.6649,-1.6528,-1.6528,-1.6529,-1.6529,-1.6529,0,-1.6696,-1.6692,-1.6664,-1.6642,-1.6618,-1.6643,-1.6627,-1.6605,-1.6572,-1.6559,-1.6535,-1.6497,-1.6467,-1.6466,-1.6438,-1.6415,-1.6424,-1.6407,-1.6409,-1.6407,-1.6504,-1.6518,-1.64,-1.64,-1.64,-1.64,-1.64,-1.64,-1.6626,-1.6576,-1.6582,-1.6527,-1.6523,-1.6487,-1.6476,-1.6462,-1.6452,-1.6409,-1.6386,-1.6386,-1.6378,-1.635,-1.6324,-1.6325,-1.6314,-1.6293,-1.6297,-1.6387,-1.64,-1.6412,-1.6426,-1.629,-1.629,-1.6203,-1.6202,-1.6202]}]]